This is the latest recevied weather packets stored in our database for station/object AI5BL. If no packets are shown the sender has not sent any weather packets the latest 10 day(s).
| Time | Temp. | Humidity | Pressure | Rain* | Wind** | Luminosity | Snow |
|---|---|---|---|---|---|---|---|
| 1778079518 | 22.78° C | 96% | 1017 hPa | 0 mm | - | 53 W/m² | - |
| 1778079214 | 22.78° C | 95% | 1016.9 hPa | 0 mm | - | 53 W/m² | - |
| 1778078912 | 22.78° C | 95% | 1016.8 hPa | 0 mm | - | 49 W/m² | - |
| 1778078608 | 22.78° C | 95% | 1016.8 hPa | 0 mm | - | 38 W/m² | - |
| 1778078307 | 22.78° C | 95% | 1016.8 hPa | 0 mm | - | 68 W/m² | - |
| 1778078003 | 22.78° C | 95% | 1016.8 hPa | 0 mm | - | 88 W/m² | - |
| 1778077702 | 22.78° C | 95% | 1016.7 hPa | 0 mm | - | 89 W/m² | - |
| 1778077399 | 22.78° C | 94% | 1016.8 hPa | 0 mm | - | 80 W/m² | - |
| 1778077098 | 22.22° C | 95% | 1016.6 hPa | 0 mm | - | 124 W/m² | - |
| 1778076795 | 22.22° C | 95% | 1016.7 hPa | 0 mm | - | 75 W/m² | - |
| 1778076493 | 22.22° C | 95% | 1016.7 hPa | 0 mm | - | 98 W/m² | - |
| 1778076189 | 22.22° C | 95% | 1016.5 hPa | 0 mm | - | 77 W/m² | - |
| 1778075887 | 22.22° C | 95% | 1016.6 hPa | 0 mm | - | 48 W/m² | - |
| 1778075583 | 22.22° C | 95% | 1016.7 hPa | 0 mm | - | 48 W/m² | - |
| 1778075280 | 22.22° C | 95% | 1016.5 hPa | 0 mm | - | 45 W/m² | - |
| 1778074976 | 21.67° C | 95% | 1016.3 hPa | 0 mm | - | 35 W/m² | - |
| 1778074673 | 21.67° C | 95% | 1016.3 hPa | 0 mm | - | 58 W/m² | - |
| 1778074370 | 21.67° C | 96% | 1016.1 hPa | 0 mm | - | 66 W/m² | - |
| 1778074067 | 21.67° C | 96% | 1016.2 hPa | 0 mm | - | 54 W/m² | - |
| 1778073764 | 21.67° C | 96% | 1016.2 hPa | 0 mm | - | 44 W/m² | - |
| 1778073462 | 21.67° C | 96% | 1016.1 hPa | 0 mm | - | 64 W/m² | - |
| 1778073158 | 21.67° C | 97% | 1016.2 hPa | 0 mm | - | 78 W/m² | - |
| 1778072855 | 21.11° C | 97% | 1016.2 hPa | 0 mm | - | 38 W/m² | - |
| 1778072551 | 21.11° C | 96% | 1016.2 hPa | 0 mm | - | 48 W/m² | - |
| 1778072250 | 21.11° C | 97% | 1016 hPa | 0 mm | - | 60 W/m² | - |
* Rain latest hour (hover to see other rain measurements)
** Current wind speed in m/s (hover to see current wind gust speed)